COSMOS 2434 (721) (32393 NORAD) Tracking and Keplerian Element Data

This shows tracking and keplerian element data for the satellite.

Feedback or suggestion? Click here.




ElementValue
Catalog32393
NameCOSMOS 2434 (721)
Epoch Orbit8482
Epoch Day322.68887413
Epoch Year2018
RAAN286.2131
Inclination64.8209
Eccentricity0.0001905
Argument of Perigee148.5246
Mean Anonmoly91.6611
Mean Motion2.13102942
Decay Rate-1E-07
L11 32393U 07065A 18322.68887413 -.00000010 00000-0 00000-0 0 9991
L22 32393 64.8209 286.2131 0001905 148.5246 91.6611 2.13102942 84829

Live tracking and technical data element details for COSMOS 2434 (721) (NORAD 32393). COSMOS 2434 (721) can be tracked NOW for your location showing map with azimuth and elevation plus other details from your city location.

Track the satellite on the map from your city or location and see movement details for azimuth, elevation, latitude, longitude, range, height, and movement on the map or in text.







IsCatalogInMostPopularTable: catalog: 32393, numindb: 45
Update: records affected: 1



GetName: 32393 COSMOS 2434 (721)

Hit Count: updated at: Tue, 20 Nov 2018 01:04:50 GMT